Terug naar catalogus

SL-14 R/B

ActiefLEO
NORAD 20721·ROCKET BODY·🇷🇺 Russia

Gelanceerd Jul 30, 1990 vanaf Plesetsk Cosmodrome

Loading…

Volgende Passages (komende 24 uur)

TLE

VersSource: Space-Track

Epoch: Sep 14, 2026, 06:14 UTC

1 20721U 90066B   26257.26027369 -.00000032  00000-0 -10817-3 0  9997
2 20721  73.5959 259.6483 0023140 123.8417 249.0009 12.41083905636850

Volg SL-14 R/B in realtime met AllMySat

Download on the App Store